Regional Weather Roundup
Issued by NWS

Home | Current Version | Previous Version | Graphics & Text | Print | Product List | Glossary On
Versions: 1 2 3 4 5 6 7 8 9 10 11 12 13 14 15 16 17 18 19 20 21 22 23 24 25 26 27 28 29 30 31 32 33 34 35 36 37 38 39 40 41 42 43 44 45 46 47 48 49 50
000
ASUS44 KMEG 031510
RWRTN
TENNESSEE HOURLY STATE WEATHER ROUNDUP
NATIONAL WEATHER SERVICE MEMPHIS TN
1000 AM CDT MON AUG 03 2015

TNZ002-004-019-021-049-052-054-088>092-031600-
WEST TENNESSEE

CITY           SKY/WX    TMP DP  RH WIND       PRES   REMARKS
MEMPHIS INTL   MOSUNNY   89  70  53 CALM      29.96R HX  94
NWS MEMPHIS      N/A     87 N/A N/A MISG        N/A
JACKSON        SUNNY     86  70  58 SW6       29.96R HX  90
DYERSBURG        N/A    N/A N/A N/A MISG        N/A
PARIS          SUNNY     82  72  69 SW7       29.96S
LEXINGTON      SUNNY     84  70  61 CALM      29.96R
$$

TNZ008-025-027-028-033-062-065-066-031600-
NORTH MIDDLE TENNESSEE

CITY           SKY/WX    TMP DP  RH WIND       PRES   REMARKS
NASHVILLE      MOSUNNY   85  51  31 W3        29.97S
CLARKSVILLE    SUNNY     83  71  67 SW6       29.94S
SMYRNA         MOSUNNY   87  66  49 VRB5      29.97S
CROSSVILLE     SUNNY     81  61  50 NW6       30.03R
$$

TNZ061-075-076-078-094-096-097-031600-
SOUTH MIDDLE TENNESSEE

CITY           SKY/WX    TMP DP  RH WIND       PRES   REMARKS
FAYETTEVILLE     N/A     82  63  51 NE3       29.98S
TULLAHOMA      SUNNY     82  57  42 N3        30.00S
WINCHESTER     SUNNY     81  63  54 CALM      29.99S
COLUMBIA       SUNNY     86  66  51 CALM      29.96S
SHELBYVILLE    SUNNY     86  66  51 W3        29.99R
$$

TNZ017-018-042-046-047-031600-
NORTHEAST TENNESSEE

CITY           SKY/WX    TMP DP  RH WIND       PRES   REMARKS
TRI CITIES     MOSUNNY   79  61  53 CALM      30.02S
ELIZABETHTON   SUNNY     79  61  53 VRB5      30.02F
$$

TNZ012-013-036-069-073-074-031600-
CENTRAL EAST TENNESSEE

CITY           SKY/WX    TMP DP  RH WIND       PRES   REMARKS
KNOXVILLE      MOSUNNY   80  66  62 CALM      29.98S
OAK RIDGE      SUNNY     81  65  58 CALM      29.99S
GATLINBURG     SUNNY     81  63  54 CALM      29.99R
MORRISTOWN     SUNNY     81  63  54 CALM      30.01S
$$

TNZ083-085-099-031600-
SOUTHEAST TENNESSEE

CITY           SKY/WX    TMP DP  RH WIND       PRES   REMARKS
CHATTANOOGA    MOSUNNY   83  63  50 NW5       29.97F
$$

SKY/WX REPORTED AS FAIR MEANS FEW OR NO CLOUDS BELOW
12 THOUSAND FEET.



USA.gov is the U.S. government's official web portal to all federal, state and local government web resources and services.